Flag for Spain Weather past 2 weeks in Barcelona, Barcelona, Spain

Now
57 °F

Scattered clouds.


Feels Like: 56 °F
Forecast: 50 / 62 °F
Wind: 7 mph from South

Location: Barcelona Airport

Current Time: Apr 1, 2015 at 8:32:46 PM

Latest Report: Apr 1, 2015 at 8:00 PM


Visibility: 6 mi

Pressure: 30.30 "Hg

Humidity: 77%

Dew point: 50 °F

Location of BarcelonaLocation

Historic Weather in Barcelona — Graph

°F

Barcelona temperature yesterday

Maximum temperature yesterday: 68 °F (at 11:30 AM)
Minimum temperature yesterday: 54 °F (at 7:00 AM)
Average temperature yesterday: 61 °F

Past Weeks' High & Low Weather Summary

 TemperatureHumidityPressure
High72 °F (Mar 30, 1:00 PM)100% (Mar 21, 7:00 AM)30.33 "Hg (Mar 21, 7:00 AM)
Low43 °F (Mar 26, 7:00 AM)35% (Mar 30, 12:30 PM)29.53 "Hg (Mar 25, 4:30 AM)
Average57 °F75%29.98 "Hg
* Reported Mar 17 6:00 PM — Apr 1 7:30 PM, Barcelona, Weather by CustomWeather, © 2015

Note: Actual official high and low records may vary slightly from our data, if they occured in-between our weather recording intervals... More about our weather records

Advertising

Barcelona weather history for previous 24 hours

 ConditionsComfort  
Time TempWeatherWind HumidityBarometerVisibility
7:30 PM
Wed, Apr 1
57 °FScattered clouds.9 mph82%30.27 "Hg6 mi
7:00 PM57 °FPassing clouds.12 mph82%30.27 "Hg6 mi
6:30 PM59 °FPassing clouds.14 mph77%30.27 "Hg6 mi
6:00 PM61 °FPassing clouds.14 mph72%30.27 "Hg6 mi
5:30 PM61 °FPassing clouds.15 mph72%30.27 "HgN/A
5:00 PM61 °FPassing clouds.18 mph77%30.27 "HgN/A
4:30 PM61 °FPassing clouds.16 mph72%30.27 "HgN/A
4:00 PM61 °FPassing clouds.15 mph72%30.27 "HgN/A
3:30 PM63 °FPassing clouds.16 mph68%30.27 "HgN/A
3:00 PM61 °FPassing clouds.16 mph77%30.30 "HgN/A
2:30 PM61 °FScattered clouds.16 mph77%30.30 "HgN/A
2:00 PM63 °FScattered clouds.15 mph73%30.30 "HgN/A
1:30 PM63 °FBroken clouds.15 mph73%30.30 "HgN/A
1:00 PM63 °FBroken clouds.14 mph73%30.30 "HgN/A
12:30 PM63 °FBroken clouds.12 mph73%30.33 "HgN/A
12:00 PM59 °FBroken clouds.6 mph72%30.33 "HgN/A
11:30 AM59 °FBroken clouds.10 mph68%30.33 "HgN/A
11:00 AM59 °FBroken clouds.10 mph68%30.33 "HgN/A
10:30 AM55 °FLight rain. Cloudy.9 mph77%30.30 "HgN/A
10:00 AM55 °FLight rain. Cloudy.9 mph72%30.30 "HgN/A
9:30 AM54 °FLight rain. Cloudy.9 mph88%30.30 "HgN/A
9:00 AM55 °FScattered clouds.7 mph77%30.30 "HgN/A
8:30 AM55 °FPassing clouds.7 mph72%30.27 "HgN/A
8:00 AM55 °FPassing clouds.5 mph72%30.27 "HgN/A
7:30 AM55 °FPassing clouds.2 mph72%30.24 "HgN/A
7:00 AM54 °FPassing clouds.No wind77%30.24 "HgN/A
6:30 AM54 °FPassing clouds.3 mph77%30.24 "HgN/A
6:00 AM54 °FPassing clouds.9 mph77%30.21 "Hg5 mi
5:30 AM54 °FPassing clouds.5 mph82%30.21 "Hg5 mi
4:30 AM54 °FPassing clouds.5 mph88%30.21 "Hg5 mi
4:00 AM54 °FPassing clouds.6 mph94%30.21 "Hg5 mi
3:30 AM54 °FPassing clouds.7 mph94%30.21 "Hg5 mi
3:00 AM54 °FPassing clouds.9 mph94%30.21 "Hg5 mi
2:30 AM55 °FPassing clouds.7 mph88%30.21 "Hg5 mi
2:00 AM55 °FPassing clouds.5 mph88%30.24 "Hg5 mi
1:30 AM55 °FPassing clouds.3 mph88%30.24 "Hg5 mi
1:00 AM55 °FPassing clouds.5 mph88%30.24 "HgN/A
12:30 AM59 °FPassing clouds.6 mph88%30.24 "HgN/A
12:00 AM59 °FPassing clouds.5 mph88%30.24 "HgN/A
11:30 PM
Tue, Mar 31
59 °FPassing clouds.5 mph88%30.24 "HgN/A
11:00 PM59 °FPassing clouds.6 mph88%30.21 "HgN/A
10:30 PM59 °FPassing clouds.7 mph88%30.21 "HgN/A
10:00 PM59 °FPassing clouds.7 mph88%30.21 "HgN/A
9:30 PM59 °FPassing clouds.8 mph88%30.18 "HgN/A
9:00 PM59 °FScattered clouds.7 mph88%30.18 "HgN/A
8:30 PM59 °FScattered clouds.9 mph94%30.18 "HgN/A
8:00 PM61 °FPassing clouds.9 mph83%30.15 "HgN/A
Weather by CustomWeather, © 2015

See weather overviewHow to use our weather pages